Flag for New Zealand Weather past 2 weeks in Palmerston North, New Zealand

Now
63 °F

Overcast.


Feels Like: 63 °F
Forecast: 60 / 74 °F
Wind: 6 mph from North

Location: Wellington Airport

Current Time: Dec 18, 2014 at 8:58:51 PM

Latest Report: Dec 18, 2014 at 8:30 PM


Visibility: N/A

Pressure: 29.86 "Hg

Humidity: 88%

Dew point: 59 °F

Location of Palmerston NorthLocation

Historic Weather in Palmerston North — Graph

°F

Palmerston North temperature yesterday

Maximum temperature yesterday: 73 °F (at 2:30 PM)
Minimum temperature yesterday: 57 °F (at 3:30 AM)
Average temperature yesterday: 62 °F

Past Weeks' High & Low Weather Summary

 TemperatureHumidityPressure
High73 °F (Dec 17, 2:30 PM)100% (Dec 5, 8:00 AM)30.30 "Hg (Dec 5, 8:00 AM)
Low46 °F (Dec 15, 5:00 AM)43% (Dec 15, 7:00 PM)29.68 "Hg (Dec 12, 4:30 AM)
Average58 °F77%29.98 "Hg
* Reported Dec 3 7:00 PM — Dec 18 7:30 PM, Palmerston North, Weather by CustomWeather, © 2014

Note: Actual official high and low records may vary slightly from our data, if they occured in-between our weather recording intervals... More about our weather records

Advertising

Palmerston North weather history for previous 24 hours

 ConditionsComfort  
Time TempWeatherWind HumidityBarometerVisibility
7:30 PM
Dec 18
63 °FPartly sunny.7 mph94%29.83 "HgN/A
7:00 PM64 °FPartly sunny.10 mph88%29.80 "HgN/A
6:30 PM64 °FBroken clouds.9 mph88%29.80 "HgN/A
6:00 PM64 °FBroken clouds.8 mph88%29.77 "HgN/A
5:30 PM63 °FLow clouds.12 mph94%29.77 "HgN/A
4:30 PM61 °FDrizzle. Overcast.17 mph100%29.74 "Hg4 mi
4:00 PM61 °FSprinkles. Partly sunny.21 mph94%29.74 "Hg4 mi
3:30 PM61 °FLight rain. Partly sunny.17 mph100%29.74 "Hg3 mi
3:00 PM61 °FLight rain. Partly sunny.16 mph100%29.74 "Hg2 mi
2:30 PM63 °FDrizzle. Partly sunny.17 mph94%29.74 "Hg2 mi
2:00 PM63 °FDrizzle. Partly sunny.16 mph94%29.77 "Hg3 mi
1:30 PM63 °FLight rain. Partly sunny.17 mph94%29.77 "Hg4 mi
1:00 PM63 °FSprinkles. Overcast.16 mph94%29.77 "Hg3 mi
12:30 PM63 °FDrizzle. Mostly cloudy.18 mph94%29.77 "Hg4 mi
12:00 PM63 °FLight rain. Partly sunny.20 mph94%29.77 "HgN/A
11:30 AM63 °FSprinkles. Mostly cloudy.16 mph94%29.77 "HgN/A
11:00 AM63 °FDrizzle. Overcast.18 mph94%29.77 "Hg6 mi
10:30 AM63 °FSprinkles. Partly sunny.13 mph94%29.77 "HgN/A
10:00 AM64 °FOvercast.17 mph88%29.77 "HgN/A
9:30 AM63 °FPartly sunny.20 mph94%29.77 "HgN/A
9:00 AM63 °FBroken clouds.15 mph94%29.77 "Hg5 mi
8:30 AM63 °FSprinkles. Mostly cloudy.13 mph94%29.74 "HgN/A
8:00 AM63 °FDrizzle. Overcast.12 mph94%29.74 "Hg4 mi
7:30 AM63 °FPartly sunny.15 mph94%29.74 "HgN/A
7:00 AM63 °FOvercast.17 mph88%29.74 "HgN/A
6:30 AM63 °FPartly sunny.16 mph88%29.74 "HgN/A
6:00 AM63 °FSprinkles. Overcast.18 mph94%29.74 "HgN/A
5:30 AM63 °FLight rain. Partly cloudy.13 mph94%29.71 "Hg2 mi
5:00 AM61 °FRain showers. Mostly cloudy.8 mph100%29.71 "Hg2 mi
4:30 AM61 °FSprinkles. Overcast.7 mph94%29.71 "HgN/A
4:00 AM61 °FOvercast.7 mph94%29.71 "HgN/A
3:30 AM61 °FSprinkles. Passing clouds.6 mph94%29.71 "HgN/A
3:00 AM59 °FSprinkles. Mostly cloudy.5 mph100%29.71 "HgN/A
2:30 AM59 °FSprinkles. Passing clouds.5 mph94%29.71 "HgN/A
2:00 AM57 °FSprinkles. Passing clouds.2 mph94%29.74 "HgN/A
1:30 AM57 °FSprinkles. Passing clouds.5 mph94%29.74 "HgN/A
1:00 AM57 °FSprinkles. Mostly cloudy.6 mph94%29.74 "HgN/A
12:30 AM59 °FMostly cloudy.1 mph88%29.74 "HgN/A
12:00 AM59 °FMostly cloudy.3 mph88%29.74 "HgN/A
11:30 PM
Dec 17
59 °FMostly cloudy.6 mph88%29.77 "HgN/A
11:00 PM59 °FOvercast.6 mph88%29.77 "HgN/A
10:30 PM59 °FOvercast.2 mph88%29.77 "HgN/A
10:00 PM59 °FOvercast.1 mph88%29.77 "HgN/A
9:30 PM59 °FOvercast.1 mph88%29.77 "HgN/A
9:00 PM59 °FPassing clouds.3 mph88%29.77 "HgN/A
8:30 PM59 °FSprinkles. Overcast.3 mph88%29.77 "HgN/A
8:00 PM59 °FPartly sunny.5 mph94%29.77 "HgN/A
Weather by CustomWeather, © 2014

See weather overviewHow to use our weather pages